Powrót do katalogu

STARLINK-3148

AktywnyŁącznośćVLEO
NORAD 49736·PAYLOAD·🇺🇸 United States

Wystrzelony Dec 2, 2021 z Cape Canaveral Space Force Station

Loading…

Następne Przeloty (najbliższe 24 godziny)

TLE

ŚwieżeSource: CelesTrak SupGP

Epoka: Sep 14, 2026, 12:55 UTC

1 49736C 21115N   26257.53868056 -.00021943  00000+0 -64837-3 0  2570
2 49736  53.1601   9.3277 0001178  80.1196  79.5861 15.34398732    19

Śledź STARLINK-3148 w czasie rzeczywistym z AllMySat

Download on the App Store